Regional Weather Roundup
Issued by NWS

Home | Current Version | Previous Version | Graphics & Text | Print | Product List | Glossary On
Versions: 1 2 3 4 5 6 7 8 9 10 11 12 13 14 15 16 17 18 19 20 21 22 23 24 25 26 27 28 29 30 31 32 33 34 35 36 37 38 39 40 41 42 43 44 45 46 47 48 49 50
000
ASUS43 KMKX 230200
RWRWI

WISCONSIN REGIONAL WEATHER ROUNDUP
NATIONAL WEATHER SERVICE MILWAUKEE/SULLIVAN WI
900 PM CDT FRI JUL 22 2016

NOTE: "FAIR" INDICATES FEW OR NO CLOUDS BELOW 12,000 FEET WITH NO
SIGNIFICANT WEATHER AND/OR OBSTRUCTIONS TO VISIBILITY.

WIZ001-002-006>008-014>016-023>028-230300-
NORTHWEST WISCONSIN

CITY           SKY/WX    TMP DP  RH WIND       PRES   REMARKS
SUPERIOR ARPT  CLEAR     78  61  57 NW3       29.93F
ASHLAND        CLOUDY    74  65  73 W3        29.94F
HAYWARD        CLOUDY    78  71  79 CALM      29.97F HX  80
SIREN          NOT AVBL
CUMBERLAND     CLEAR     73  68  83 CALM      29.98F
RICE LAKE      CLEAR     76  70  80 CALM      29.99F
CHETEK         CLEAR     79  70  74 CALM      29.97F HX  81
LADYSMITH      CLEAR     78  70  77 CALM      30.00F HX  80
EAU CLAIRE     NOT AVBL
MENOMONIE      CLEAR     82  66  57 CALM      29.97F HX  84
NEW RICHMOND   CLEAR     79  64  60 E3        29.97F HX  81
OSCEOLA        CLEAR     77  72  85 CALM      29.99S
$$

WIZ003>005-009-010-017-018-230300-
NORTH CENTRAL WISCONSIN

CITY           SKY/WX    TMP DP  RH WIND       PRES   REMARKS
MANITOWISH WTR CLEAR     71  70  97 CALM      30.00F
ARBOR VITAE    CLEAR     77  67  70 CALM      30.00F
WOODRUFF       CLEAR     77  67  70 CALM      30.00F
RHINELANDER    CLEAR     71  63  75 CALM      30.01F
EAGLE RIVER    CLEAR     71  63  74 CALM      30.00F
LAND O LAKES   CLEAR     72  65  78 CALM      30.01F
PHILLIPS       CLEAR     73  69  87 CALM      29.99F
TOMAHAWK       CLEAR     73  67  81 CALM      30.01F
MEDFORD        CLEAR     72  72 100 CALM      30.00F
MERRILL        CLEAR     80  70  70 CALM      30.00F HX  83
$$

WIZ029-030-035-036-043>047-230300-
CENTRAL WISCONSIN

CITY           SKY/WX    TMP DP  RH WIND       PRES   REMARKS
WAUSAU         CLEAR     80  68  66 W3        29.97F HX  83
MOSINEE        CLEAR     79  68  69 W5        30.00F HX  81
MARSHFIELD     CLEAR     77  69  76 CALM      29.99F
STEVENS POINT  CLEAR     80  69  68 CALM      29.99S HX  83
WAUPACA        CLEAR     84  66  55 W5        29.97S HX  86
WAUTOMA        CLEAR     77  73  87 CALM      29.97S
WISC RAPIDS    CLEAR     76  68  76 CALM      29.99F
CAMP DOUGLAS   NOT AVBL
$$

WIZ011>013-019>022-031-037>040-048>050-230300-
NORTHEAST WISCONSIN

CITY           SKY/WX    TMP DP  RH WIND       PRES   REMARKS
ANTIGO         CLEAR     77  68  72 CALM      30.01S
SHAWANO        CLEAR     82  68  62 CALM      29.96R HX  85
OCONTO         CLEAR     78  78  99 CALM      29.93S HX  80
STURGEON BAY   CLEAR     78  71  79 S6        29.95S HX  80
GREEN BAY      CLEAR     76  74  93 SW3       29.94S
MANITOWOC      NOT AVBL
APPLETON       PTCLDY    81  64  57 W3        29.95S HX  82
CLINTONVILLE   CLEAR     81  64  57 W5        29.95F HX  82
OSHKOSH        CLEAR     81  70  69 SW3       29.96S HX  84
$$

WIZ032>034-041-042-053>061-230300-
SOUTHWEST WISCONSIN

CITY           SKY/WX    TMP DP  RH WIND       PRES   REMARKS
LA CROSSE      CLEAR     86  76  71 CALM      29.94F HX  96
SPARTA         CLEAR     83  75  79 CALM      29.98S HX  90
VIROQUA        CLEAR     80  78  95 CALM      29.99F HX  88
BOSCOBEL       CLEAR     81  78  91 CALM      29.97S HX  89
PRAIRIE DU CHI PTCLDY    82  76  81 CALM      29.96S HX  89
PLATTEVILLE    PTCLDY    81  80  97 SW3       30.00S HX  91
$$

WIZ056-057-062-063-064-067-068-230300-
SOUTH CENTRAL WISCONSIN

CITY           SKY/WX    TMP DP  RH WIND       PRES   REMARKS
REEDSBURG      CLEAR    N/A N/A N/A CALM      29.97S
BARABOO/DELLS  MOCLDY    82  76  83 W3        29.98S HX  89
LONE ROCK      NOT AVBL
MINERAL POINT  CLOUDY    82  79  89 SW3       30.00S HX  93
MADISON        PTCLDY    82  76  81 CALM      29.97R HX  89
MIDDLETON      CLEAR     82  78  89 CALM      29.98S HX  91
WATERTOWN      CLEAR     83  77  82 CALM      29.97R HX  92
MONROE         PTCLDY    81  77  89 S3        29.99S HX  88
JANESVILLE     CLEAR     82  79  89 CALM      29.97S HX  93
$$

WIZ051-052-058>065-066-070>072-230300-
SOUTHEAST WISCONSIN

CITY           SKY/WX    TMP DP  RH WIND       PRES   REMARKS
MILWAUKEE      PTCLDY    80  70  71 SE5       29.96S HX  83
WAUKESHA       CLEAR     79  72  78 CALM      29.98S HX  82
MILWAUKEE/TIMM CLEAR     82  66  57 CALM      29.98S HX  85
RACINE         CLEAR     79  71  76 S5        29.98S HX  82
BURLINGTON     CLEAR     79  75  89 SW3       29.98R HX  82
KENOSHA        CLEAR     82  72  71 S5        29.97S HX  87
FOND DU LAC    CLEAR     78  74  87 SW3       29.96S HX  81
SHEBOYGAN      CLEAR     75  72  90 CALM      29.96S
WEST BEND      CLEAR     79  70  73 CALM      29.97S HX  81
JUNEAU         CLEAR     81  75  81 CALM      29.98S HX  86
$$

LSZ147-162-230300-
LAKE SUPERIOR

STATION/POSITION TIME  TEMP    WIND        PRES    WAVE
                       AIR SEA DIR/SP/G            HT/PER
                 (UTC) (F)     (DEG/KT/KT) (MB)    (FT/S)
W MID LAKE BUOY  0050   66 58  240/  6/  8 1012.6S   1/ 3
DEVILS ISLAND    0100   75     210/  9/ 10 1013.4R
PORT WING        0100   82     270/  7/  9 1013.9
SAXON HARBOR     0000   82     190/  2/  2 1014.2S
$$

LMZ867-665-643>646-230300-
LAKE MICHIGAN

STATION/POSITION TIME  TEMP    WIND        PRES    WAVE
                       AIR SEA DIR/SP/G            HT/PER
                 (UTC) (F)     (DEG/KT/KT) (MB)    (FT/S)
CHAMBERS ISLAND  0100   80     190/  5/  7 1012.9R
S GREEN BAY BUOY 0100   79 76  210/  6/  8   N/A
N MID LAKE BUOY  0050   71 68  220/ 12/ 14 1012.3R   2/ 4
NORTHPORT PIER   0100   83     230/  5/ 11 1012.9
KEWAUNEE LAKESHO 0100   61                   N/A
SHEBOYGAN LAKESH 0100   67     170/  9/  9 1014.5F
PORT WASHINGTON  0100   74     190/  2/  5 1014.9F
MILWAUKEE LAKESH 0110   72      60/  4/  5   N/A
S MID LAKE BUOY  0050   75 74  170/  4/  4 1014.1F   0
KENOSHA   LAKESH 0100   78     180/ 12/ 13 1014.2R
$$

TC  - TEMPERATURE IN CELSIUS
VSB - VISIBILITY IN STATUTE MILES
WCI - WIND CHILL INDEX
HX  - HEAT INDEX





USA.gov is the U.S. government's official web portal to all federal, state and local government web resources and services.